Theta_e
310 310 310 309 309 308 308 307 306 305 305 305 304 304 302 302 301 301 300 299 299 299 298 298 298 297 296 294 294 294 294 294 293 293 294 294 294 293 292 292 292 292 292 292 291 291 291 291 291 292 291 290 290 289 289 288 287 287 287 287 286 286 286 287 286 285 285 285 284
310 310 309 307 307 307 308 307 305 304 304 305 304 303 302 302 301 301 300 299 299 299 298 298 297 296 295 294 294 295 295 294 293 293 293 294 294 293 292 292 292 292 292 292 292 292 292 291 292 292 292 290 290 289 288 287 287 288 288 287 286 286 286 287 286 285 285 285 284
310 310 310 309 308 308 308 307 306 305 304 304 303 303 302 302 302 301 300 299 299 298 298 297 297 296 295 294 295 295 295 294 294 294 294 294 293 292 292 292 292 292 292 292 292 292 292 292 293 292 292 291 290 289 288 286 287 288 288 286 286 286 286 287 286 285 285 286 285
311 310 310 309 309 308 308 308 306 305 304 304 303 302 301 301 301 301 300 299 297 297 297 297 297 296 295 295 295 295 295 294 294 294 294 294 293 292 291 291 291 291 291 292 292 292 291 291 293 293 292 290 289 289 289 287 287 287 287 287 287 287 287 287 286 286 286 286 286
310 310 310 310 309 308 308 308 306 305 304 304 303 302 301 301 301 300 299 298 298 298 298 297 297 297 296 295 294 294 294 294 293 294 294 294 293 292 291 291 291 291 291 291 291 291 291 291 292 292 291 290 290 289 288 288 288 288 287 287 287 288 288 287 287 287 287 287 286
311 311 310 310 309 309 309 308 307 306 305 305 303 302 301 301 301 300 299 299 298 298 297 296 296 295 295 294 294 294 294 293 294 294 294 293 292 291 291 290 291 291 291 290 290 290 290 291 292 292 291 290 289 288 288 288 289 289 288 288 288 288 288 288 288 287 287 287 287
311 311 310 310 309 309 309 308 307 306 305 305 303 302 301 301 301 300 299 299 298 297 297 296 295 295 295 294 294 294 294 294 293 293 292 292 291 291 290 290 291 291 291 290 290 290 290 291 292 291 290 290 290 289 288 289 290 290 290 289 288 288 288 288 288 288 288 288 287
312 311 311 311 310 309 308 308 307 306 305 305 304 303 301 301 301 300 299 299 298 298 297 297 296 295 295 295 295 294 294 293 292 292 291 291 291 290 290 290 290 291 290 290 290 290 290 291 291 291 291 290 290 290 289 289 290 290 290 289 289 288 288 288 288 288 288 288 288
312 312 311 311 310 309 309 309 308 307 306 305 304 303 302 301 301 300 299 299 298 298 297 297 296 295 294 294 294 294 294 293 292 291 290 290 290 289 290 290 290 290 290 290 290 291 291 292 292 291 291 292 292 291 290 290 290 291 290 290 289 289 288 288 289 289 289 289 289
313 313 312 311 311 310 309 309 308 307 306 305 304 304 302 300 300 300 300 299 298 297 297 297 296 294 293 293 293 293 293 292 291 291 290 290 290 290 290 291 291 290 291 291 291 291 292 292 291 291 292 293 292 291 290 290 291 291 291 291 290 289 288 288 288 289 289 290 290
313 313 313 312 311 310 309 309 308 307 306 306 305 304 303 301 301 300 300 299 298 297 296 296 295 295 294 293 293 293 293 292 292 291 290 290 290 290 291 291 291 291 291 291 292 292 292 292 291 291 292 293 292 291 291 290 291 291 291 291 290 289 289 288 288 289 289 290 290
314 314 313 313 312 311 310 309 309 308 307 306 306 305 304 303 302 300 299 298 297 297 296 296 295 295 294 294 293 293 292 293 292 292 292 291 291 291 291 292 292 292 292 292 293 293 292 292 292 292 292 292 293 292 291 290 291 291 290 290 290 290 289 289 289 289 289 290 290
315 314 314 314 313 312 311 310 310 309 308 307 307 306 305 304 302 301 300 298 298 297 297 295 295 295 295 295 294 294 293 293 293 293 292 292 292 292 292 293 293 293 293 294 294 293 293 293 293 292 292 292 293 292 292 291 291 291 291 290 290 290 290 289 289 289 290 289 289
315 315 315 314 314 313 312 311 311 310 309 308 307 307 306 305 303 301 300 299 298 298 297 296 295 295 295 295 295 295 294 294 294 294 293 293 293 293 294 294 294 294 294 294 294 294 294 294 294 293 293 292 293 293 293 292 292 292 292 291 291 291 291 290 290 290 290 289 289
316 316 315 315 314 314 313 312 311 311 310 309 308 308 307 306 304 302 301 300 299 298 298 296 296 295 295 296 296 296 296 296 295 295 294 294 294 295 295 295 294 294 294 295 295 295 295 295 295 294 294 293 293 293 293 293 293 293 292 292 292 292 291 291 291 291 290 289 289
316 316 316 315 315 314 314 313 313 312 311 310 309 309 308 307 304 302 301 300 299 299 298 297 296 296 296 297 297 298 298 298 297 297 296 296 296 296 296 295 295 295 295 295 296 296 296 296 296 296 295 294 294 294 293 293 293 293 293 293 292 292 292 291 291 291 290 290 289
317 316 316 316 315 315 314 314 314 313 312 311 310 309 308 307 305 303 301 300 300 299 298 297 297 297 298 298 298 299 299 299 298 298 298 297 298 298 298 298 298 297 297 297 297 297 297 297 297 296 296 295 295 294 293 293 293 293 293 292 292 292 291 291 291 290 290 290 290
317 317 316 316 316 315 315 315 314 314 313 312 311 310 308 307 305 303 301 300 301 301 300 299 298 299 300 301 301 301 300 300 299 299 299 299 299 300 301 300 300 299 298 298 298 298 297 297 297 296 296 296 295 294 294 293 293 293 293 292 292 291 291 291 291 291 291 291 291
317 317 317 316 316 316 316 315 315 315 314 313 311 310 308 307 305 304 302 301 302 303 303 301 300 301 302 303 304 303 301 300 300 300 300 301 302 302 303 302 301 300 299 299 299 299 299 298 297 297 296 295 295 294 294 293 293 293 293 292 292 292 292 292 292 292 292 292 291
318 317 317 317 317 317 316 316 315 315 314 312 311 309 308 307 306 305 304 304 304 305 305 303 302 303 305 306 306 304 303 302 302 302 302 302 303 303 303 303 302 301 300 300 301 301 300 299 297 297 296 295 295 294 294 293 293 293 293 292 292 292 292 293 292 292 292 292 292
318 318 318 318 317 317 317 317 316 316 314 313 310 309 307 307 306 305 305 306 307 307 307 305 304 306 308 309 307 306 305 304 303 303 303 304 304 304 304 303 303 302 302 301 302 302 301 299 298 297 296 295 295 294 294 293 293 293 293 293 293 293 293 293 293 293 293 293 293
319 319 318 318 318 318 318 317 316 316 315 314 311 309 307 306 306 307 308 309 309 309 309 309 308 308 309 310 308 307 307 305 304 305 305 305 305 305 304 304 303 303 302 303 303 303 301 299 298 297 296 296 295 295 294 293 293 293 293 292 293 293 293 293 293 293 293 293 293
318 318 318 318 319 318 317 317 318 318 317 316 316 314 312 307 306 307 309 309 309 309 310 311 310 310 310 311 310 309 308 306 305 305 305 305 305 305 304 304 303 303 303 303 304 303 301 298 297 297 296 296 295 295 294 294 294 293 293 292 292 293 292 293 293 293 293 294 294
319 319 319 320 320 319 319 319 319 318 318 317 317 317 316 313 307 308 310 310 310 310 311 312 311 310 310 310 310 310 308 306 305 305 305 305 305 305 304 304 303 303 303 303 303 301 299 297 297 296 296 296 295 295 294 294 294 293 293 292 292 292 292 293 293 293 293 294 294
320 319 319 320 320 320 319 319 319 319 318 318 318 317 317 317 311 309 309 310 310 311 311 312 310 309 309 310 310 310 309 307 305 304 304 304 304 304 303 303 303 303 302 301 299 297 296 295 295 296 295 295 295 294 294 294 293 293 293 293 292 292 292 292 292 293 293 294 294
320 319 319 319 319 319 319 319 319 319 319 319 318 318 318 318 314 310 308 309 310 310 311 311 310 308 307 309 309 309 308 307 305 304 304 304 303 303 302 302 302 302 301 299 296 295 294 294 294 294 294 295 295 294 293 293 293 293 293 292 292 292 292 292 292 293 293 294 294
320 319 319 320 320 319 319 319 319 319 319 319 319 319 319 319 317 312 309 308 309 311 311 311 309 307 305 308 308 307 307 306 304 303 303 303 302 301 301 301 301 300 299 297 294 293 293 294 293 293 293 294 294 293 293 293 292 292 292 292 292 292 292 292 292 293 293 293 294
318 319 319 320 320 320 320 320 320 320 319 319 319 319 320 319 318 314 310 307 309 310 312 311 309 307 306 307 307 306 306 305 304 303 302 302 302 301 300 300 300 299 297 295 294 293 293 293 293 293 293 293 293 293 292 292 291 291 291 291 291 291 292 292 293 293 293 293 293
318 318 318 319 319 319 319 319 319 319 319 319 320 320 320 320 319 315 311 307 309 310 311 309 307 307 307 306 306 306 306 306 305 304 303 302 301 300 300 299 299 297 295 294 293 293 293 293 293 293 293 293 293 293 292 292 291 291 291 291 291 291 292 293 293 293 293 293 293
318 318 318 318 319 319 319 318 318 319 319 319 319 319 319 319 319 315 311 308 309 310 310 308 307 306 306 306 306 306 306 306 306 305 304 303 301 300 299 298 297 296 294 293 293 293 293 293 293 293 292 292 292 292 292 291 291 290 291 291 291 291 291 292 293 293 293 293 293
318 318 318 318 319 319 319 319 319 319 319 318 317 317 317 318 318 315 311 308 309 309 308 307 307 306 306 307 306 306 306 306 306 306 305 303 300 299 298 297 296 294 292 292 292 293 293 293 293 292 292 292 292 292 292 290 290 290 290 290 290 290 290 291 292 292 292 292 292
318 318 318 318 318 318 318 318 319 319 318 317 317 316 317 318 317 313 310 308 309 308 307 307 306 306 306 306 306 306 306 306 306 305 304 302 301 299 298 296 295 292 291 291 292 292 293 293 293 292 292 291 292 292 292 290 289 289 289 289 289 289 290 290 291 290 290 290 290
318 317 317 317 318 318 318 318 318 318 318 318 318 318 318 318 313 310 308 309 309 309 308 307 307 306 306 306 306 306 305 305 305 303 301 300 299 298 296 294 294 292 290 291 291 292 292 292 292 292 291 290 291 292 291 290 289 289 289 289 289 289 290 290 291 291 291 291 291
318 317 317 317 317 317 317 317 317 316 316 316 317 318 318 315 310 308 309 310 310 309 309 309 308 307 307 306 306 306 305 304 304 302 301 299 298 296 295 293 292 291 290 290 291 291 291 292 292 291 291 290 291 291 291 291 290 289 289 290 290 290 291 291 291 292 292 292 292
317 317 317 317 317 317 317 316 315 314 314 314 314 314 314 311 309 309 309 309 309 310 310 310 310 308 308 307 307 305 304 303 303 301 299 298 297 296 294 293 291 290 290 290 291 291 291 291 291 291 290 289 290 291 291 291 290 290 290 291 291 291 291 292 292 292 292 293 293
317 317 316 316 316 316 315 314 314 313 312 312 312 311 310 309 309 310 309 308 309 310 310 310 310 309 308 307 305 304 303 303 301 299 297 297 296 295 294 292 291 290 290 290 291 291 291 291 291 291 291 291 291 291 291 291 291 291 291 291 290 291 291 291 292 292 292 293 293
316 316 315 315 315 315 315 314 313 312 312 312 311 310 309 308 309 309 309 308 310 310 310 310 309 308 307 305 304 303 302 301 299 297 296 295 295 295 293 292 291 290 289 290 291 291 291 291 291 291 291 292 292 292 291 291 291 291 290 290 290 290 291 291 291 292 292 292 293
316 316 315 315 315 315 314 314 312 312 311 310 310 309 309 308 309 309 308 307 309 309 308 308 307 306 305 303 302 301 300 299 297 296 295 295 295 294 293 291 291 290 289 290 291 291 291 292 292 292 292 292 292 292 292 291 290 290 290 290 289 290 290 290 291 292 292 292 291
316 316 315 315 314 314 314 313 312 310 310 309 308 308 308 308 308 308 307 306 308 307 306 305 305 304 302 300 300 298 297 297 296 296 295 295 294 293 292 291 291 290 290 290 291 291 291 292 292 292 291 291 291 292 291 291 290 289 289 289 289 289 290 290 291 291 292 292 292
316 316 315 314 314 313 313 312 310 310 308 308 307 307 307 307 306 306 306 306 306 305 304 303 302 301 299 297 297 296 296 296 295 295 294 294 293 292 291 291 290 289 289 290 291 291 291 292 292 291 291 290 291 291 291 291 290 289 289 289 290 290 290 291 291 291 291 291 291
315 314 313 313 313 313 312 310 310 308 308 307 306 305 305 304 305 305 305 305 304 303 302 301 300 298 297 296 296 295 295 294 294 294 293 292 292 291 291 290 289 288 288 289 291 291 292 292 292 291 291 289 289 290 291 290 290 290 289 290 290 291 291 291 291 290 290 290 289
Wind_Speed
9 9 8 8 7 7 7 6 5 5 6 7 7 7 7 8 8 7 7 7 7 7 7 7 7 7 7 8 9 10 10 9 9 9 9 10 9 9 8 8 8 8 8 7 7 7 7 7 6 5 4 4 4 4 3 3 4 4 5 4 4 4 5 6 6 5 5 5 4
10 10 9 8 7 7 6 6 5 5 6 6 6 7 7 7 8 8 8 8 7 7 6 6 6 7 8 9 10 11 11 10 10 10 10 10 9 9 8 8 8 8 9 9 8 7 7 7 6 5 4 4 4 4 3 3 4 5 5 5 4 3 4 5 5 5 5 4 3
10 10 9 8 8 8 7 7 6 7 7 6 6 6 6 7 7 7 7 8 7 7 6 6 6 7 9 9 9 10 10 10 10 10 10 9 9 8 8 8 8 8 8 8 8 7 7 7 6 5 5 4 4 4 4 3 3 4 5 5 3 3 3 4 4 4 4 3 4
11 10 10 10 11 11 10 8 8 8 8 7 6 6 6 6 6 6 6 6 7 7 6 7 7 7 8 9 9 10 10 10 10 10 10 9 9 8 8 7 8 8 7 7 7 7 6 6 5 5 4 5 5 4 4 3 3 3 4 3 3 3 4 4 4 4 4 4 4
11 11 11 11 12 12 10 9 9 9 8 7 6 6 6 6 6 5 5 6 7 8 8 8 7 7 7 8 9 10 10 10 10 9 9 9 8 7 7 7 7 7 6 6 6 6 6 6 4 4 4 4 4 4 4 5 5 4 3 3 3 3 4 4 4 4 4 4 3
12 12 12 11 11 11 10 9 9 9 8 7 8 8 8 7 6 7 7 8 8 8 8 8 7 6 7 8 9 9 9 9 8 8 8 7 6 6 5 5 5 5 5 5 5 5 5 5 4 3 3 3 3 3 4 6 5 5 4 3 3 3 4 5 5 4 4 5 4
12 12 12 12 11 11 10 9 9 8 8 8 9 10 10 9 9 9 10 9 8 7 7 7 7 7 7 8 8 8 8 8 7 7 6 6 4 4 4 4 4 4 4 4 4 4 4 4 3 3 3 3 3 4 4 5 5 5 5 5 3 4 4 6 5 5 6 8 8
12 12 13 12 12 12 12 11 9 9 8 8 10 11 12 11 11 11 10 8 7 7 7 7 7 8 8 8 8 8 8 7 6 5 4 4 4 4 4 4 4 4 4 5 5 4 4 3 3 3 3 3 3 3 4 5 6 6 6 6 4 4 4 5 5 6 7 9 10
12 12 12 12 12 12 12 12 10 10 10 10 11 12 12 12 12 11 10 8 8 7 7 7 7 7 7 7 7 7 7 7 6 5 4 4 5 5 5 5 5 5 5 5 5 5 4 3 3 3 3 3 3 4 5 6 6 7 6 5 5 4 4 4 6 7 8 9 10
12 12 12 12 12 12 12 12 11 11 11 11 11 11 11 11 11 10 9 7 6 6 6 7 7 7 7 7 7 7 6 6 6 6 6 6 6 6 6 5 6 5 5 4 5 5 5 4 3 3 3 3 4 5 5 6 7 7 6 4 5 5 5 4 5 6 7 7 9
13 13 12 12 12 12 11 12 11 11 11 11 11 11 11 10 10 9 7 6 6 6 7 7 7 7 7 7 6 6 6 6 6 7 7 6 7 7 7 7 7 6 6 5 4 4 4 4 4 4 4 4 5 5 6 7 7 7 7 5 5 6 6 5 5 5 6 6 7
13 13 12 12 12 12 12 12 11 11 11 11 11 11 10 10 10 8 7 6 6 7 7 6 7 7 7 6 6 6 7 7 7 7 7 7 7 7 8 8 8 7 7 6 5 5 4 5 5 6 6 6 5 6 6 7 7 7 7 6 6 6 6 6 6 5 5 5 6
13 13 12 12 12 12 12 12 11 11 11 12 12 11 10 10 9 8 7 8 7 7 6 6 7 7 7 6 6 6 7 8 8 8 8 8 8 8 8 8 8 8 8 7 6 6 6 6 7 8 8 8 7 7 7 8 8 8 8 8 7 7 8 8 7 6 5 5 5
14 13 12 12 12 12 12 13 12 11 12 13 12 11 10 9 9 8 8 8 8 7 6 6 6 6 6 7 7 7 8 8 9 9 9 8 8 8 9 8 9 8 8 7 8 8 9 9 9 10 10 10 9 8 8 9 9 10 10 9 9 9 9 8 7 6 6 5 6
14 14 13 13 13 12 12 13 12 11 12 12 12 11 10 8 8 8 8 8 8 7 6 6 5 5 6 8 8 8 9 9 10 10 9 9 9 9 9 8 9 9 8 8 9 9 10 11 11 11 11 11 11 10 9 9 9 9 9 9 9 9 8 7 7 6 6 6 6
15 15 14 13 13 13 13 13 11 11 11 12 11 10 9 8 7 7 8 8 7 6 6 6 5 5 6 7 8 9 9 9 10 10 10 9 9 9 9 8 8 8 9 9 9 9 10 10 11 11 12 12 12 11 10 9 8 8 7 7 7 7 7 6 6 6 6 6 6
16 15 15 14 14 14 14 13 12 11 11 11 10 9 9 8 7 7 7 7 6 5 5 6 5 5 6 6 7 8 9 9 10 10 10 10 10 9 9 9 9 10 10 11 11 11 11 11 11 12 12 12 11 10 9 9 8 7 7 6 6 5 5 5 5 5 5 5 6
16 16 15 15 15 15 15 14 12 11 10 10 9 8 7 7 6 6 6 5 5 4 4 5 5 6 6 8 7 7 8 10 10 10 10 10 10 11 11 11 12 12 12 11 12 12 12 12 11 10 10 9 9 8 8 8 7 7 7 6 5 5 4 4 5 5 5 5 6
16 16 15 15 15 15 14 13 12 11 9 8 7 7 7 7 7 7 6 5 4 3 3 4 5 6 7 9 9 8 8 9 11 11 11 11 11 11 11 12 12 12 12 11 12 12 11 10 10 9 9 8 7 6 6 7 7 7 7 6 6 5 5 5 5 5 6 6 6
16 15 15 14 14 13 12 11 11 10 8 7 6 7 7 8 8 9 8 6 5 4 4 5 6 6 7 9 10 10 9 9 12 13 14 13 12 11 11 11 12 12 12 12 12 12 11 10 10 9 9 8 8 7 7 7 7 7 7 6 6 6 6 6 6 7 7 7 7
16 15 14 13 13 12 12 11 10 9 8 6 6 6 7 8 9 10 11 9 8 7 7 7 8 8 9 9 10 11 10 9 12 13 14 13 12 12 12 12 12 12 12 12 12 12 12 10 10 10 9 9 9 8 8 7 7 7 7 6 6 7 7 8 8 8 8 9 8
15 14 12 11 10 8 6 5 5 5 4 5 5 5 5 6 9 11 12 12 11 10 10 10 10 10 10 9 10 11 10 10 11 12 12 12 13 13 13 13 13 13 13 13 14 13 13 11 11 10 10 10 10 10 9 8 8 8 7 7 7 8 8 9 9 9 10 10 9
11 9 7 6 5 5 5 5 5 4 3 3 3 3 3 4 7 10 11 12 12 12 12 11 11 11 10 9 10 11 11 10 11 12 13 13 13 13 13 12 13 14 14 14 14 13 12 11 11 11 11 11 12 11 11 10 9 8 8 8 8 9 9 9 10 10 10 10 9
8 7 6 7 7 7 5 4 3 3 2 2 2 1 1 2 5 8 10 12 12 13 12 10 10 10 10 9 10 10 11 12 13 14 14 14 13 13 13 12 13 13 13 12 12 12 11 9 10 11 11 11 11 11 11 10 9 9 9 9 9 9 9 9 10 10 10 10 9
10 8 7 6 6 4 2 2 3 4 5 5 5 4 4 3 3 6 8 11 12 12 12 11 10 9 9 8 8 9 10 12 13 14 14 13 13 12 12 11 11 11 10 10 11 12 12 11 10 10 10 10 10 9 9 9 9 8 8 9 9 9 9 9 9 10 10 10 9
8 7 6 7 6 4 2 3 5 7 8 9 9 9 8 7 4 5 7 9 10 10 10 10 9 8 7 7 7 7 8 9 10 11 12 12 12 11 11 10 9 8 8 9 12 14 15 14 13 11 10 9 9 8 8 8 8 8 8 8 9 9 9 9 10 9 9 9 9
4 4 6 7 5 3 3 4 5 6 8 9 9 10 10 9 7 6 7 9 9 9 9 8 8 8 7 6 6 6 6 5 7 9 10 11 11 11 10 9 8 7 8 10 12 14 16 16 16 14 11 9 9 9 8 8 8 8 8 8 9 9 10 10 10 9 8 7 7
6 5 6 6 5 3 3 4 5 6 6 7 9 10 10 10 9 8 8 9 9 9 7 7 7 6 6 5 6 6 6 6 6 8 9 11 11 11 10 8 8 7 8 10 12 14 16 17 17 16 14 11 9 8 8 8 8 7 7 7 8 9 10 10 9 8 7 7 6
11 9 6 3 3 3 2 3 4 5 6 8 9 10 11 12 11 10 9 9 10 9 7 6 5 5 6 6 7 8 8 8 8 8 9 10 10 10 9 8 8 7 8 10 12 14 15 16 16 16 16 14 10 8 7 7 7 7 7 7 8 8 8 8 7 7 6 6 6
10 9 7 4 4 4 3 2 4 6 9 11 12 13 13 14 12 10 9 10 10 9 7 6 6 7 8 9 9 9 9 10 9 9 9 9 9 9 9 8 6 5 5 7 10 12 14 15 16 16 16 16 11 8 7 7 7 7 7 7 7 7 7 7 6 6 5 5 5
8 8 8 8 6 4 3 3 6 9 11 12 12 13 14 13 11 9 9 9 9 8 8 9 9 10 11 11 11 11 11 11 10 9 9 9 9 9 8 7 5 3 3 4 8 11 13 15 16 16 16 16 12 8 7 6 6 6 6 6 6 6 6 5 5 5 5 5 5
8 8 8 8 6 4 3 3 6 8 9 9 10 11 12 10 8 7 7 8 9 9 10 11 11 11 12 12 12 12 12 12 10 9 9 9 9 8 7 5 4 2 2 4 7 10 13 15 15 16 15 15 11 8 6 5 5 5 4 4 4 4 4 4 4 4 4 5 5
9 8 6 5 5 5 4 3 5 6 6 5 5 7 7 7 4 5 7 9 10 11 11 11 12 12 12 13 13 13 12 12 10 9 8 8 8 7 6 4 3 2 3 5 7 10 12 14 15 15 14 13 9 7 6 5 4 4 3 3 3 4 4 5 4 5 5 5 5
10 9 8 8 8 8 6 4 5 5 4 2 2 3 4 5 5 7 8 9 9 9 10 10 10 11 12 13 13 13 12 10 9 8 7 7 7 6 5 3 2 2 3 6 8 10 11 13 13 12 12 10 7 5 5 5 4 4 4 4 4 5 5 5 5 5 5 5 5
10 10 10 10 9 8 6 4 4 4 3 2 1 2 3 6 8 9 9 9 9 9 9 8 8 9 10 10 11 12 11 10 8 8 7 7 7 7 5 3 2 2 4 7 8 9 10 10 10 10 9 7 5 5 5 6 5 5 5 5 5 5 5 5 5 5 5 5 4
11 11 10 9 7 6 4 3 4 4 4 3 3 4 6 8 9 10 10 9 10 10 10 9 8 8 9 8 8 8 8 9 8 8 8 8 8 7 6 4 2 3 4 7 8 8 9 9 10 10 9 7 5 5 5 5 5 5 6 6 5 5 5 5 4 4 4 3 3
11 10 9 8 6 5 3 3 4 5 6 6 6 7 9 11 11 10 10 10 11 11 12 10 9 8 8 8 7 6 6 8 8 8 8 8 8 8 7 5 3 3 5 7 9 10 11 12 12 11 9 7 5 5 5 5 4 5 5 5 5 4 4 4 3 3 3 2 2
11 10 9 8 6 4 3 4 5 6 7 8 8 9 11 12 12 11 10 9 10 10 9 8 8 8 8 8 7 7 7 7 8 8 8 8 7 8 7 6 4 3 5 7 10 11 12 13 13 12 9 7 6 6 5 5 5 5 5 4 4 3 3 3 3 3 3 3 3
10 9 8 8 6 5 4 5 6 7 8 9 9 10 10 11 10 9 9 8 8 7 7 6 7 7 8 8 7 6 6 6 6 7 7 6 6 7 8 7 5 4 4 6 9 11 13 13 13 11 9 7 6 6 5 5 5 5 5 4 3 3 3 3 3 3 3 3 3
9 8 8 8 8 7 7 7 7 7 7 8 9 10 9 9 8 8 7 7 7 7 6 7 8 8 8 8 8 7 6 6 6 6 6 6 6 6 7 7 5 4 4 4 7 9 10 11 11 10 8 7 6 5 5 5 5 5 4 4 3 3 3 3 3 3 3 2 3
9 9 9 9 10 10 10 9 9 8 8 8 9 8 8 8 7 7 7 7 7 7 7 7 9 9 9 8 8 9 9 9 8 8 8 7 7 6 5 5 5 5 5 5 7 8 9 10 10 9 8 6 5 4 4 4 5 5 4 4 3 3 3 3 3 3 3 3 5
Wind_Direction
182 184 185 183 184 186 188 191 189 188 187 188 191 190 189 190 191 192 193 194 197 198 199 199 197 197 194 189 188 192 197 198 194 193 193 193 193 190 185 180 178 177 176 174 170 169 170 170 167 166 167 169 167 164 160 150 152 156 161 162 161 159 159 162 164 163 161 158 152
186 186 186 183 185 187 188 190 190 190 190 191 193 191 191 192 192 193 194 196 198 199 198 199 196 194 192 190 189 191 194 197 194 194 194 195 194 189 183 181 181 180 178 174 172 172 173 171 169 168 166 164 160 158 152 138 145 149 153 156 152 149 150 156 158 157 154 150 144
188 188 187 186 188 190 191 192 192 192 193 193 193 193 193 196 196 195 196 197 197 196 196 199 196 193 190 189 190 192 194 196 194 193 194 196 193 188 183 181 181 181 179 176 176 175 174 172 172 171 167 164 162 157 149 131 136 142 146 149 143 139 142 147 147 145 145 144 147
189 190 190 190 191 193 194 193 192 192 192 193 193 193 195 200 200 198 197 196 195 196 198 199 196 193 189 188 190 193 195 195 193 193 194 195 191 187 182 179 179 180 179 176 175 172 169 168 171 169 163 158 158 154 146 135 132 131 134 141 139 141 144 146 146 147 147 149 153
193 193 194 194 194 195 197 196 192 191 192 192 192 194 198 202 202 200 197 195 199 200 200 197 195 192 189 186 189 192 194 194 193 194 195 195 190 185 179 175 176 175 174 170 168 163 160 162 165 159 150 147 148 143 137 137 132 128 127 134 144 148 149 149 153 153 151 150 154
195 196 197 197 195 197 198 198 193 191 191 192 194 196 199 201 201 200 199 200 202 200 197 194 194 192 187 183 187 190 193 193 194 194 194 192 186 177 171 169 167 163 157 152 147 145 146 154 153 141 130 130 128 129 134 141 138 135 136 144 155 155 153 155 158 157 154 152 155
197 197 198 198 196 197 199 200 194 192 192 195 196 199 201 202 202 202 202 202 200 197 195 194 195 192 187 182 186 189 191 191 191 191 188 183 170 159 152 148 142 136 131 127 123 125 132 144 138 128 120 121 122 132 144 152 147 146 148 158 165 163 159 161 162 160 158 158 160
199 199 200 199 197 198 199 200 195 193 194 199 201 202 203 203 203 203 202 201 198 197 195 196 196 192 188 183 186 187 187 184 182 177 169 150 135 128 124 119 114 111 110 110 112 116 120 123 119 121 124 128 133 148 160 164 159 158 160 165 171 172 170 167 167 166 165 164 165
200 202 202 201 199 199 199 200 197 196 198 203 205 205 204 204 204 203 202 202 200 197 195 196 195 191 186 183 183 182 180 173 165 153 134 117 113 112 110 107 104 100 98 101 109 114 116 110 107 117 130 140 148 163 173 174 170 169 169 169 172 176 178 173 171 171 169 168 170
201 202 202 202 201 200 200 201 200 200 201 206 207 206 205 205 206 205 204 204 198 195 194 196 190 186 183 182 180 175 168 157 146 134 122 112 112 112 111 110 107 104 102 104 110 115 117 115 116 128 145 156 163 173 180 184 181 180 179 176 174 176 179 182 177 175 174 173 174
203 202 201 202 201 200 199 201 203 204 205 208 209 208 207 206 207 207 205 201 194 194 194 192 183 180 180 179 173 164 155 145 137 128 121 115 116 118 118 118 116 116 117 119 121 124 125 129 136 151 166 178 177 181 186 191 190 188 186 183 177 177 181 187 187 184 181 179 177
205 203 202 203 201 199 199 202 205 207 208 210 211 210 208 207 206 204 201 195 193 193 191 184 177 176 175 171 162 152 143 137 133 129 125 123 124 124 124 124 124 126 129 134 136 139 143 149 158 169 180 190 190 190 191 194 195 194 192 187 184 184 187 190 192 192 188 181 178
206 204 203 203 201 199 200 203 207 208 209 211 211 211 209 207 203 198 194 193 192 189 184 177 173 172 169 163 153 145 140 136 133 131 129 130 130 131 131 131 134 137 142 148 153 158 162 168 173 181 188 195 198 197 195 194 197 197 195 191 191 193 195 194 194 192 187 178 179
206 205 204 203 201 200 201 205 208 210 210 211 212 211 209 206 198 193 190 192 189 184 177 171 170 168 163 155 148 143 140 136 133 131 132 135 138 139 140 142 146 151 156 162 167 171 175 180 185 189 194 199 201 201 198 197 199 200 198 194 194 197 199 196 192 188 183 178 179
207 206 205 203 202 202 204 206 209 211 211 211 211 209 207 204 194 189 187 189 187 180 172 166 165 159 152 147 144 142 139 136 134 134 136 140 144 146 148 151 157 162 168 173 178 181 184 187 190 194 199 203 204 203 201 201 204 205 203 198 198 199 200 197 189 184 180 176 177
208 207 205 204 203 204 206 207 209 211 211 211 209 207 204 202 191 184 182 185 183 177 167 160 154 147 141 140 141 140 138 137 137 138 141 147 149 150 151 157 165 171 176 180 185 190 194 194 194 197 201 205 204 203 202 203 208 210 210 205 202 202 201 196 187 181 178 174 174
208 208 206 205 206 207 208 208 210 211 211 211 206 203 201 199 187 180 177 177 174 168 159 146 139 137 137 139 140 140 139 140 141 144 149 154 154 156 160 169 178 183 185 186 189 195 202 204 203 202 203 205 204 203 201 200 204 208 210 207 204 202 199 191 181 176 172 171 173
209 209 208 207 208 209 209 210 211 212 211 209 204 200 197 193 181 171 164 165 167 164 153 136 134 139 143 144 145 146 147 148 149 152 158 162 165 169 176 184 188 192 195 195 197 202 207 210 209 209 208 209 207 202 197 193 197 201 203 202 198 193 187 178 171 167 167 169 172
210 209 209 208 209 210 211 211 211 212 211 206 200 194 189 186 171 157 147 145 162 177 177 157 149 152 154 152 154 156 156 153 155 161 169 176 179 184 189 192 194 198 201 205 208 211 214 214 213 213 212 213 210 202 193 188 191 194 196 195 189 182 174 167 165 165 167 171 171
209 209 209 209 210 211 211 211 210 209 207 202 193 187 182 178 163 152 147 153 172 191 194 178 167 168 169 164 163 162 160 158 164 172 180 187 190 193 196 197 197 199 203 208 213 217 219 218 214 213 212 212 209 203 194 187 188 189 189 188 182 174 169 166 166 169 172 175 174
208 208 207 207 208 208 209 210 207 203 197 185 174 170 170 169 157 151 151 160 175 188 194 189 184 184 184 177 170 166 164 164 175 183 188 192 195 197 198 198 198 199 202 206 213 217 219 218 214 211 210 209 208 204 199 191 188 186 185 182 177 173 171 170 171 173 175 179 178
204 203 202 202 207 210 206 188 171 161 152 143 131 131 139 151 151 149 151 158 171 183 192 194 193 193 191 182 175 171 170 172 183 190 194 196 198 198 198 197 198 199 202 206 211 215 216 215 210 207 205 206 208 207 203 196 190 186 184 182 179 178 177 177 176 177 180 182 183
193 188 179 162 132 101 80 77 81 84 88 93 100 109 121 134 144 149 153 160 171 182 191 195 196 194 190 181 177 176 177 180 188 194 199 200 200 199 198 197 198 200 203 206 210 212 212 210 206 203 202 204 206 207 205 199 194 190 187 186 185 184 184 184 183 184 186 188 189
149 139 129 120 111 104 97 86 70 55 38 15 353 315 209 162 149 154 160 167 175 183 190 195 194 189 183 178 181 184 186 187 192 197 201 202 201 200 198 197 199 202 205 208 208 207 206 203 202 202 202 203 206 207 206 202 199 195 191 189 189 189 190 192 191 192 193 194 194
141 138 133 127 131 138 164 222 255 267 274 284 287 279 263 242 186 170 171 177 181 186 190 193 188 180 173 173 185 192 194 193 196 199 202 203 203 201 199 198 200 203 206 208 206 203 200 197 197 199 201 203 205 206 207 206 202 197 193 190 190 192 194 197 199 199 199 199 199
149 149 149 145 138 141 171 217 234 240 244 248 255 256 254 250 225 195 184 185 186 186 185 184 176 167 163 169 185 195 198 197 200 202 204 206 207 205 202 200 201 203 206 208 204 200 197 193 193 194 196 199 201 202 205 207 203 199 195 191 192 194 197 201 204 205 205 203 202
126 114 116 124 134 161 199 209 211 217 222 227 233 238 241 243 232 213 196 189 184 178 172 166 160 153 151 162 177 186 191 193 202 208 210 211 211 208 205 202 202 203 206 206 202 198 194 192 191 190 189 193 195 197 199 203 201 198 194 193 194 197 200 203 205 206 206 206 203
120 112 107 103 110 134 177 191 198 207 214 218 224 231 237 238 231 218 201 186 176 167 159 151 144 139 140 149 160 164 167 175 199 213 219 219 217 213 208 206 205 206 206 204 199 196 193 192 190 188 186 187 191 193 194 196 196 196 195 196 198 201 204 206 206 204 202 202 200
133 137 143 139 134 136 154 196 221 227 227 224 225 231 236 238 230 218 198 178 168 162 155 144 134 131 134 141 146 151 160 177 198 214 224 226 224 220 215 212 211 210 208 202 197 195 193 192 190 188 186 184 187 190 192 193 194 195 196 199 201 203 206 208 207 203 198 195 193
127 132 138 144 141 136 140 200 237 242 240 234 226 226 230 235 229 216 194 174 167 160 152 140 135 137 142 146 150 158 170 185 199 212 223 228 228 226 222 218 217 216 211 201 195 193 193 192 191 190 188 185 184 186 189 191 192 193 196 201 202 203 204 205 202 197 192 187 184
116 115 115 114 118 128 159 227 247 250 249 244 232 228 228 232 228 214 192 172 162 152 141 136 139 144 148 152 159 169 179 189 199 210 220 226 227 227 224 220 218 219 213 201 195 194 194 194 194 193 190 186 184 184 187 187 188 190 194 198 198 197 195 193 189 184 177 173 173
121 114 108 107 114 130 163 221 245 251 251 247 238 233 232 233 228 208 181 160 150 142 139 139 144 148 153 158 167 176 184 190 198 208 217 222 224 222 218 212 205 196 192 199 198 197 196 196 195 194 192 187 185 184 181 176 176 177 178 180 178 175 173 170 166 161 157 156 159
138 135 135 147 160 166 176 209 240 251 253 246 235 228 224 221 206 175 157 147 143 142 142 145 150 155 161 166 174 181 188 194 201 208 214 217 214 207 198 188 180 174 181 194 199 200 199 198 196 194 191 188 185 177 167 155 151 148 146 145 141 139 140 143 144 144 145 146 151
156 161 168 173 168 165 169 198 235 250 256 251 237 217 202 179 156 149 147 144 142 142 144 149 158 164 169 172 177 182 188 194 198 203 206 205 195 185 174 164 164 177 187 192 198 200 201 199 195 190 185 180 174 159 144 134 128 126 126 125 123 125 128 133 137 141 146 151 158
159 157 157 156 152 152 159 190 219 228 227 214 211 196 174 150 146 147 148 145 143 144 149 158 166 170 172 175 179 182 185 187 189 191 191 187 176 166 157 150 159 181 184 183 187 190 191 189 181 172 164 157 149 138 131 127 124 124 125 124 124 128 132 136 142 148 154 159 165
149 146 143 140 139 142 153 183 194 194 188 183 182 172 159 145 147 149 149 147 148 153 160 169 171 171 171 174 178 180 180 180 180 181 179 174 165 158 150 140 150 161 162 160 161 161 159 156 150 145 140 135 130 125 123 123 123 123 125 125 130 136 141 145 148 151 152 152 151
143 140 137 135 136 141 156 180 188 188 183 176 172 163 155 147 149 151 152 151 156 162 167 171 171 170 168 169 172 175 176 176 174 173 172 167 159 150 142 133 141 146 143 139 138 137 136 136 135 134 132 130 128 123 120 118 119 122 126 130 136 139 141 140 136 128 119 111 105
142 141 139 138 141 150 172 191 190 183 172 158 154 152 151 148 150 153 154 154 160 165 167 167 166 163 161 159 162 165 168 170 168 165 162 158 150 140 133 129 137 141 139 135 133 132 132 132 133 133 132 131 130 127 123 121 123 126 130 133 132 125 116 107 102 99 97 97 102
142 141 139 138 141 153 170 178 172 162 150 141 142 145 147 147 150 152 153 152 154 154 154 152 150 146 143 142 143 145 147 149 147 143 139 136 131 128 127 129 135 138 136 134 133 132 132 131 131 129 128 127 128 127 126 126 127 129 129 126 118 106 96 93 96 99 104 112 123
138 135 132 132 136 142 147 148 144 139 134 133 137 140 142 143 144 145 143 140 137 134 133 132 131 130 129 129 127 121 112 101 96 97 100 102 105 111 117 123 123 117 110 111 116 118 119 118 117 116 115 116 119 122 124 126 126 126 124 119 113 107 102 99 102 104 107 107 100
131 128 127 129 130 131 130 129 127 127 128 130 132 133 133 132 133 132 131 126 124 124 124 125 125 123 121 118 113 106 96 83 74 71 73 76 78 82 89 98 94 84 70 64 71 77 80 82 83 85 87 92 98 105 109 114 115 115 113 108 106 105 103 98 91 85 78 71 69